Year,Month,Day,Hour,Minute,Value (Times are PST for temperature in C)
2012,08,17,00,00,19.80
2012,08,17,00,01,19.80
2012,08,17,00,02,19.70
2012,08,17,00,03,19.70
2012,08,17,00,04,19.70
2012,08,17,00,05,19.70
2012,08,17,00,06,19.70
2012,08,17,00,07,19.70
2012,08,17,00,08,19.60
2012,08,17,00,09,19.60
2012,08,17,00,10,19.60
2012,08,17,00,11,19.60
2012,08,17,00,12,19.60
2012,08,17,00,13,19.60
2012,08,17,00,14,19.60
2012,08,17,00,15,19.60
2012,08,17,00,16,19.60
2012,08,17,00,17,19.60
2012,08,17,00,18,19.60
2012,08,17,00,19,19.60
2012,08,17,00,20,19.50
2012,08,17,00,21,19.50
2012,08,17,00,22,19.50
2012,08,17,00,23,19.50
2012,08,17,00,24,19.50
2012,08,17,00,25,19.50
2012,08,17,00,26,19.50
2012,08,17,00,27,19.50
2012,08,17,00,28,19.50
2012,08,17,00,29,19.50
2012,08,17,00,30,19.40
2012,08,17,00,31,19.40
2012,08,17,00,32,19.40
2012,08,17,00,33,19.40
2012,08,17,00,34,19.40
2012,08,17,00,35,19.30
2012,08,17,00,36,19.30
2012,08,17,00,37,19.30
2012,08,17,00,38,19.30
2012,08,17,00,39,19.20
2012,08,17,00,40,19.20
2012,08,17,00,41,19.20
2012,08,17,00,42,19.20
2012,08,17,00,43,19.20
2012,08,17,00,44,19.10
2012,08,17,00,45,19.10
2012,08,17,00,46,19.10
2012,08,17,00,47,19.10
2012,08,17,00,48,19.10
2012,08,17,00,49,19.10
2012,08,17,00,50,19.10
2012,08,17,00,51,19.10
2012,08,17,00,52,19.10
2012,08,17,00,53,19.10
2012,08,17,00,54,19.10
2012,08,17,00,55,19.10
2012,08,17,00,56,19.00
2012,08,17,00,57,18.90
2012,08,17,00,58,18.90
2012,08,17,00,59,18.90
2012,08,17,01,00,18.90
2012,08,17,01,01,18.90
2012,08,17,01,02,18.90
2012,08,17,01,03,18.90
2012,08,17,01,04,18.90
2012,08,17,01,05,18.90
2012,08,17,01,06,18.80
2012,08,17,01,07,18.80
2012,08,17,01,08,18.80
2012,08,17,01,09,18.80
2012,08,17,01,10,18.80
2012,08,17,01,11,18.80
2012,08,17,01,12,18.70
2012,08,17,01,13,18.70
2012,08,17,01,14,18.70
2012,08,17,01,15,18.70
2012,08,17,01,16,18.70
2012,08,17,01,17,18.70
2012,08,17,01,18,18.70
2012,08,17,01,19,18.70
2012,08,17,01,20,18.70
2012,08,17,01,21,18.70
2012,08,17,01,22,18.70
2012,08,17,01,23,18.60
2012,08,17,01,24,18.60
2012,08,17,01,25,18.60
2012,08,17,01,26,18.60
2012,08,17,01,27,18.60
2012,08,17,01,28,18.60
2012,08,17,01,29,18.50
2012,08,17,01,30,18.50
2012,08,17,01,31,18.50
2012,08,17,01,32,18.50
2012,08,17,01,33,18.50
2012,08,17,01,34,18.50
2012,08,17,01,35,18.40
2012,08,17,01,36,18.40
2012,08,17,01,37,18.40
2012,08,17,01,38,18.40
2012,08,17,01,39,18.40
2012,08,17,01,40,18.30
2012,08,17,01,41,18.30
2012,08,17,01,42,18.30
2012,08,17,01,43,18.30
2012,08,17,01,44,18.30
2012,08,17,01,45,18.30
2012,08,17,01,46,18.20
2012,08,17,01,47,18.20
2012,08,17,01,48,18.20
2012,08,17,01,49,18.20
2012,08,17,01,50,18.20
2012,08,17,01,51,18.20
2012,08,17,01,52,18.20
2012,08,17,01,53,18.20
2012,08,17,01,54,18.20
2012,08,17,01,55,18.20
2012,08,17,01,56,18.20
2012,08,17,01,57,18.20
2012,08,17,01,58,18.20
2012,08,17,01,59,18.20
2012,08,17,02,00,18.10
2012,08,17,02,01,18.10
2012,08,17,02,02,18.10
2012,08,17,02,03,18.10
2012,08,17,02,04,18.10
2012,08,17,02,05,18.10
2012,08,17,02,06,18.10
2012,08,17,02,07,18.10
2012,08,17,02,08,18.10
2012,08,17,02,09,18.10
2012,08,17,02,10,18.10
2012,08,17,02,11,18.10
2012,08,17,02,12,18.00
2012,08,17,02,13,17.90
2012,08,17,02,14,17.90
2012,08,17,02,15,17.90
2012,08,17,02,16,17.90
2012,08,17,02,17,17.90
2012,08,17,02,18,17.90
2012,08,17,02,19,17.90
2012,08,17,02,20,17.90
2012,08,17,02,21,17.90
2012,08,17,02,22,17.90
2012,08,17,02,23,17.90
2012,08,17,02,24,17.90
2012,08,17,02,25,17.90
2012,08,17,02,26,17.90
2012,08,17,02,27,17.90
2012,08,17,02,28,17.90
2012,08,17,02,29,17.80
2012,08,17,02,30,17.80
2012,08,17,02,31,17.80
2012,08,17,02,32,17.70
2012,08,17,02,33,17.70
2012,08,17,02,34,17.70
2012,08,17,02,35,17.60
2012,08,17,02,36,17.60
2012,08,17,02,37,17.60
2012,08,17,02,38,17.60
2012,08,17,02,39,17.60
2012,08,17,02,40,17.60
2012,08,17,02,41,17.60
2012,08,17,02,42,17.60
2012,08,17,02,43,17.60
2012,08,17,02,44,17.60
2012,08,17,02,45,17.60
2012,08,17,02,46,17.60
2012,08,17,02,47,17.60
2012,08,17,02,48,17.60
2012,08,17,02,49,17.60
2012,08,17,02,50,17.60
2012,08,17,02,51,17.60
2012,08,17,02,52,17.60
2012,08,17,02,53,17.60
2012,08,17,02,54,17.60
2012,08,17,02,55,17.60
2012,08,17,02,56,17.60
2012,08,17,02,57,17.60
2012,08,17,02,58,17.60
2012,08,17,02,59,17.60
2012,08,17,03,00,17.60
2012,08,17,03,01,17.60
2012,08,17,03,02,17.50
2012,08,17,03,03,17.50
2012,08,17,03,04,17.50
2012,08,17,03,05,17.50
2012,08,17,03,06,17.50
2012,08,17,03,07,17.50
2012,08,17,03,08,17.40
2012,08,17,03,09,17.40
2012,08,17,03,10,17.40
2012,08,17,03,11,17.40
2012,08,17,03,12,17.40
2012,08,17,03,13,17.30
2012,08,17,03,14,17.30
2012,08,17,03,15,17.30
2012,08,17,03,16,17.30
2012,08,17,03,17,17.30
2012,08,17,03,18,17.30
2012,08,17,03,19,17.30
2012,08,17,03,20,17.30
2012,08,17,03,21,17.30
2012,08,17,03,22,17.30
2012,08,17,03,23,17.30
2012,08,17,03,24,17.30
2012,08,17,03,25,17.20
2012,08,17,03,26,17.20
2012,08,17,03,27,17.20
2012,08,17,03,28,17.20
2012,08,17,03,29,17.20
2012,08,17,03,30,17.30
2012,08,17,03,31,17.30
2012,08,17,03,32,17.30
2012,08,17,03,33,17.20
2012,08,17,03,34,17.20
2012,08,17,03,35,17.20
2012,08,17,03,36,17.20
2012,08,17,03,37,17.20
2012,08,17,03,38,17.20
2012,08,17,03,39,17.20
2012,08,17,03,40,17.20
2012,08,17,03,41,17.10
2012,08,17,03,42,17.10
2012,08,17,03,43,17.10
2012,08,17,03,44,17.10
2012,08,17,03,45,17.10
2012,08,17,03,46,17.10
2012,08,17,03,47,17.10
2012,08,17,03,48,17.00
2012,08,17,03,49,17.00
2012,08,17,03,50,17.00
2012,08,17,03,51,17.00
2012,08,17,03,52,16.90
2012,08,17,03,53,16.90
2012,08,17,03,54,16.90
2012,08,17,03,55,16.80
2012,08,17,03,56,16.80
2012,08,17,03,57,16.80
2012,08,17,03,58,16.70
2012,08,17,03,59,16.70
2012,08,17,04,00,16.70
2012,08,17,04,01,16.70
2012,08,17,04,02,16.70
2012,08,17,04,03,16.70
2012,08,17,04,04,16.70
2012,08,17,04,05,16.70
2012,08,17,04,06,16.70
2012,08,17,04,07,16.70
2012,08,17,04,08,16.70
2012,08,17,04,09,16.70
2012,08,17,04,10,16.60
2012,08,17,04,11,16.60
2012,08,17,04,12,16.60
2012,08,17,04,13,16.60
2012,08,17,04,14,16.60
2012,08,17,04,15,16.60
2012,08,17,04,16,16.60
2012,08,17,04,17,16.60
2012,08,17,04,18,16.60
2012,08,17,04,19,16.60
2012,08,17,04,20,16.60
2012,08,17,04,21,16.60
2012,08,17,04,22,16.60
2012,08,17,04,23,16.60
2012,08,17,04,24,16.60
2012,08,17,04,25,16.60
2012,08,17,04,26,16.60
2012,08,17,04,27,16.60
2012,08,17,04,28,16.60
2012,08,17,04,29,16.60
2012,08,17,04,30,16.60
2012,08,17,04,31,16.60
2012,08,17,04,32,16.60
2012,08,17,04,33,16.60
2012,08,17,04,34,16.60
2012,08,17,04,35,16.60
2012,08,17,04,36,16.50
2012,08,17,04,37,16.60
2012,08,17,04,38,16.50
2012,08,17,04,39,16.50
2012,08,17,04,40,16.40
2012,08,17,04,41,16.40
2012,08,17,04,42,16.40
2012,08,17,04,43,16.40
2012,08,17,04,44,16.40
2012,08,17,04,45,16.40
2012,08,17,04,46,16.40
2012,08,17,04,47,16.40
2012,08,17,04,48,16.30
2012,08,17,04,49,16.30
2012,08,17,04,50,16.30
2012,08,17,04,51,16.30
2012,08,17,04,52,16.30
2012,08,17,04,53,16.20
2012,08,17,04,54,16.20
2012,08,17,04,55,16.20
2012,08,17,04,56,16.20
2012,08,17,04,57,16.20
2012,08,17,04,58,16.10
2012,08,17,04,59,16.10
2012,08,17,05,00,16.10
2012,08,17,05,01,16.10
2012,08,17,05,02,16.10
2012,08,17,05,03,16.10
2012,08,17,05,04,16.10
2012,08,17,05,05,16.10
2012,08,17,05,06,16.10
2012,08,17,05,07,16.10
2012,08,17,05,08,16.10
2012,08,17,05,09,16.10
2012,08,17,05,10,16.10
2012,08,17,05,11,16.00
2012,08,17,05,12,15.90
2012,08,17,05,13,15.90
2012,08,17,05,14,15.90
2012,08,17,05,15,15.90
2012,08,17,05,16,15.90
2012,08,17,05,17,15.90
2012,08,17,05,18,15.90
2012,08,17,05,19,15.90
2012,08,17,05,20,15.90
2012,08,17,05,21,15.90
2012,08,17,05,22,15.90
2012,08,17,05,23,15.90
2012,08,17,05,24,15.90
2012,08,17,05,25,15.90
2012,08,17,05,26,15.80
2012,08,17,05,27,15.80
2012,08,17,05,28,15.80
2012,08,17,05,29,15.80
2012,08,17,05,30,15.80
2012,08,17,05,31,15.80
2012,08,17,05,32,15.80
2012,08,17,05,33,15.80
2012,08,17,05,34,15.80
2012,08,17,05,35,15.80
2012,08,17,05,36,15.80
2012,08,17,05,37,15.80
2012,08,17,05,38,15.80
2012,08,17,05,39,15.80
2012,08,17,05,40,15.80
2012,08,17,05,41,15.80
2012,08,17,05,42,15.80
2012,08,17,05,43,15.80
2012,08,17,05,44,15.80
2012,08,17,05,45,15.80
2012,08,17,05,46,15.80
2012,08,17,05,47,15.80
2012,08,17,05,48,15.80
2012,08,17,05,49,15.80
2012,08,17,05,50,15.80
2012,08,17,05,51,15.80
2012,08,17,05,52,15.80
2012,08,17,05,53,15.80
2012,08,17,05,54,15.80
2012,08,17,05,55,15.80
2012,08,17,05,56,15.80
2012,08,17,05,57,15.80
2012,08,17,05,58,15.80
2012,08,17,05,59,15.80
2012,08,17,06,00,15.80
2012,08,17,06,01,15.80
2012,08,17,06,02,15.80
2012,08,17,06,03,15.80
2012,08,17,06,04,15.70
2012,08,17,06,05,15.70
2012,08,17,06,06,15.70
2012,08,17,06,07,15.70
2012,08,17,06,08,15.70
2012,08,17,06,09,15.70
2012,08,17,06,10,15.70
2012,08,17,06,11,15.60
2012,08,17,06,12,15.60
2012,08,17,06,13,15.60
2012,08,17,06,14,15.60
2012,08,17,06,15,15.60
2012,08,17,06,16,15.60
2012,08,17,06,17,15.60
2012,08,17,06,18,15.60
2012,08,17,06,19,15.60
2012,08,17,06,20,15.60
2012,08,17,06,21,15.60
2012,08,17,06,22,15.60
2012,08,17,06,23,15.60
2012,08,17,06,24,15.60
2012,08,17,06,25,15.60
2012,08,17,06,26,15.60
2012,08,17,06,27,15.60
2012,08,17,06,28,15.60
2012,08,17,06,29,15.60
2012,08,17,06,30,15.60
2012,08,17,06,31,15.70
2012,08,17,06,32,15.70
2012,08,17,06,33,15.70
2012,08,17,06,34,15.70
2012,08,17,06,35,15.80
2012,08,17,06,36,15.80
2012,08,17,06,37,15.80
2012,08,17,06,38,15.80
2012,08,17,06,39,15.80
2012,08,17,06,40,15.80
2012,08,17,06,41,15.80
2012,08,17,06,42,15.90
2012,08,17,06,43,15.90
2012,08,17,06,44,16.00
2012,08,17,06,45,16.10
2012,08,17,06,46,16.10
2012,08,17,06,47,16.10
2012,08,17,06,48,16.10
2012,08,17,06,49,16.10
2012,08,17,06,50,16.10
2012,08,17,06,51,16.10
2012,08,17,06,52,16.10
2012,08,17,06,53,16.10
2012,08,17,06,54,16.10
2012,08,17,06,55,16.10
2012,08,17,06,56,16.10
2012,08,17,06,57,16.10
2012,08,17,06,58,16.10
2012,08,17,06,59,16.10
2012,08,17,07,00,16.10
2012,08,17,07,01,16.10
2012,08,17,07,02,16.10
2012,08,17,07,03,16.10
2012,08,17,07,04,16.20
2012,08,17,07,05,16.20
2012,08,17,07,06,16.20
2012,08,17,07,07,16.30
2012,08,17,07,08,16.30
2012,08,17,07,09,16.30
2012,08,17,07,10,16.30
2012,08,17,07,11,16.30
2012,08,17,07,12,16.40
2012,08,17,07,13,16.40
2012,08,17,07,14,16.40
2012,08,17,07,15,16.40
2012,08,17,07,16,16.40
2012,08,17,07,17,16.40
2012,08,17,07,18,16.50
2012,08,17,07,19,16.60
2012,08,17,07,20,16.60
2012,08,17,07,21,16.70
2012,08,17,07,22,16.70
2012,08,17,07,23,16.80
2012,08,17,07,24,16.80
2012,08,17,07,25,16.90
2012,08,17,07,26,17.00
2012,08,17,07,27,17.00
2012,08,17,07,28,17.10
2012,08,17,07,29,17.20
2012,08,17,07,30,17.30
2012,08,17,07,31,17.40
2012,08,17,07,32,17.50
2012,08,17,07,33,17.70
2012,08,17,07,34,17.80
2012,08,17,07,35,17.80
2012,08,17,07,36,17.90
2012,08,17,07,37,17.90
2012,08,17,07,38,17.90
2012,08,17,07,39,17.90
2012,08,17,07,40,18.00
2012,08,17,07,41,18.10
2012,08,17,07,42,18.20
2012,08,17,07,43,18.20
2012,08,17,07,44,18.20
2012,08,17,07,45,18.20
2012,08,17,07,46,18.30
2012,08,17,07,47,18.40
2012,08,17,07,48,18.40
2012,08,17,07,49,18.50
2012,08,17,07,50,18.60
2012,08,17,07,51,18.60
2012,08,17,07,52,18.70
2012,08,17,07,53,18.70
2012,08,17,07,54,18.80
2012,08,17,07,55,18.90
2012,08,17,07,56,18.90
2012,08,17,07,57,18.90
2012,08,17,07,58,19.00
2012,08,17,07,59,19.10
2012,08,17,08,00,19.10
2012,08,17,08,01,19.10
2012,08,17,08,02,19.20
2012,08,17,08,03,19.30
2012,08,17,08,04,19.40
2012,08,17,08,05,19.50
2012,08,17,08,06,19.60
2012,08,17,08,07,19.60
2012,08,17,08,08,19.60
2012,08,17,08,09,19.60
2012,08,17,08,10,19.70
2012,08,17,08,11,19.70
2012,08,17,08,12,19.70
2012,08,17,08,13,19.70
2012,08,17,08,14,19.80
2012,08,17,08,15,19.80
2012,08,17,08,16,19.90
2012,08,17,08,17,19.90
2012,08,17,08,18,19.90
2012,08,17,08,19,20.10
2012,08,17,08,20,20.10
2012,08,17,08,21,20.20
2012,08,17,08,22,20.20
2012,08,17,08,23,20.30
2012,08,17,08,24,20.30
2012,08,17,08,25,20.40
2012,08,17,08,26,20.40
2012,08,17,08,27,20.50
2012,08,17,08,28,20.50
2012,08,17,08,29,20.50
2012,08,17,08,30,20.50
2012,08,17,08,31,20.50
2012,08,17,08,32,20.60
2012,08,17,08,33,20.80
2012,08,17,08,34,20.80
2012,08,17,08,35,20.80
2012,08,17,08,36,20.80
2012,08,17,08,37,20.80
2012,08,17,08,38,20.80
2012,08,17,08,39,20.80
2012,08,17,08,40,21.00
2012,08,17,08,41,21.20
2012,08,17,08,42,21.30
2012,08,17,08,43,21.30
2012,08,17,08,44,21.40
2012,08,17,08,45,21.40
2012,08,17,08,46,21.40
2012,08,17,08,47,21.40
2012,08,17,08,48,21.40
2012,08,17,08,49,21.40
2012,08,17,08,50,21.40
2012,08,17,08,51,21.40
2012,08,17,08,52,21.40
2012,08,17,08,53,21.40
2012,08,17,08,54,21.40
2012,08,17,08,55,21.40
2012,08,17,08,56,21.40
2012,08,17,08,57,21.60
2012,08,17,08,58,21.60
2012,08,17,08,59,21.60
2012,08,17,09,00,21.60
2012,08,17,09,01,21.60
2012,08,17,09,02,21.60
2012,08,17,09,03,21.60
2012,08,17,09,04,21.70
2012,08,17,09,05,21.70
2012,08,17,09,06,21.60
2012,08,17,09,07,21.60
2012,08,17,09,08,21.60
2012,08,17,09,09,21.60
2012,08,17,09,10,21.40
2012,08,17,09,11,21.30
2012,08,17,09,12,21.20
2012,08,17,09,13,21.20
2012,08,17,09,14,21.10
2012,08,17,09,15,21.10
2012,08,17,09,16,21.10
2012,08,17,09,17,21.10
2012,08,17,09,18,21.10
2012,08,17,09,19,21.20
2012,08,17,09,20,21.20
2012,08,17,09,21,21.20
2012,08,17,09,22,21.20
2012,08,17,09,23,21.20
2012,08,17,09,24,21.10
2012,08,17,09,25,21.10
2012,08,17,09,26,21.00
2012,08,17,09,27,20.80
2012,08,17,09,28,20.80
2012,08,17,09,29,20.70
2012,08,17,09,30,20.70
2012,08,17,09,31,20.70
2012,08,17,09,32,20.70
2012,08,17,09,33,20.70
2012,08,17,09,34,20.60
2012,08,17,09,35,20.60
2012,08,17,09,36,20.60
2012,08,17,09,37,20.60
2012,08,17,09,38,20.60
2012,08,17,09,39,20.60
2012,08,17,09,40,20.60
2012,08,17,09,41,20.60
2012,08,17,09,42,20.60
2012,08,17,09,43,20.60
2012,08,17,09,44,20.60
2012,08,17,09,45,20.70
2012,08,17,09,46,20.70
2012,08,17,09,47,20.80
2012,08,17,09,48,20.80
2012,08,17,09,49,20.90
2012,08,17,09,50,21.00
2012,08,17,09,51,21.00
2012,08,17,09,52,21.10
2012,08,17,09,53,21.10
2012,08,17,09,54,21.20
2012,08,17,09,55,21.20
2012,08,17,09,56,21.30
2012,08,17,09,57,21.30
2012,08,17,09,58,21.30
2012,08,17,09,59,21.30
2012,08,17,10,00,21.20
2012,08,17,10,01,21.10
2012,08,17,10,02,21.00
2012,08,17,10,03,21.00
2012,08,17,10,04,20.90
2012,08,17,10,05,20.80
2012,08,17,10,06,20.80
2012,08,17,10,07,20.80
2012,08,17,10,08,20.80
2012,08,17,10,09,20.80
2012,08,17,10,10,20.90
2012,08,17,10,11,20.90
2012,08,17,10,12,20.90
2012,08,17,10,13,20.90
2012,08,17,10,14,21.00
2012,08,17,10,15,21.20
2012,08,17,10,16,21.30
2012,08,17,10,17,21.50
2012,08,17,10,18,21.60
2012,08,17,10,19,21.70
2012,08,17,10,20,21.70
2012,08,17,10,21,21.80
2012,08,17,10,22,21.90
2012,08,17,10,23,21.90
2012,08,17,10,24,22.00
2012,08,17,10,25,22.00
2012,08,17,10,26,22.00
2012,08,17,10,27,22.00
2012,08,17,10,28,22.00
2012,08,17,10,29,22.10
2012,08,17,10,30,22.10
2012,08,17,10,31,22.10
2012,08,17,10,32,22.10
2012,08,17,10,33,22.20
2012,08,17,10,34,22.30
2012,08,17,10,35,22.40
2012,08,17,10,36,22.60
2012,08,17,10,37,22.70
2012,08,17,10,38,22.70
2012,08,17,10,39,22.80
2012,08,17,10,40,22.80
2012,08,17,10,41,22.70
2012,08,17,10,42,22.70
2012,08,17,10,43,22.70
2012,08,17,10,44,22.70
2012,08,17,10,45,22.70
2012,08,17,10,46,22.80
2012,08,17,10,47,22.90
2012,08,17,10,48,23.10
2012,08,17,10,49,23.20
2012,08,17,10,50,23.20
2012,08,17,10,51,23.20
2012,08,17,10,52,23.20
2012,08,17,10,53,23.20
2012,08,17,10,54,23.20
2012,08,17,10,55,23.20
2012,08,17,10,56,23.20
2012,08,17,10,57,23.20
2012,08,17,10,58,23.20
2012,08,17,10,59,23.20
2012,08,17,11,00,23.10
2012,08,17,11,01,23.10
2012,08,17,11,02,23.00
2012,08,17,11,03,22.90
2012,08,17,11,04,22.90
2012,08,17,11,05,22.80
2012,08,17,11,06,22.80
2012,08,17,11,07,22.80
2012,08,17,11,08,22.90
2012,08,17,11,09,22.90
2012,08,17,11,10,22.90
2012,08,17,11,11,23.00
2012,08,17,11,12,23.10
2012,08,17,11,13,23.30
2012,08,17,11,14,23.30
2012,08,17,11,15,23.30
2012,08,17,11,16,23.40
2012,08,17,11,17,23.50
2012,08,17,11,18,23.60
2012,08,17,11,19,23.70
2012,08,17,11,20,23.60
2012,08,17,11,21,23.60
2012,08,17,11,22,23.50
2012,08,17,11,23,23.40
2012,08,17,11,24,23.40
2012,08,17,11,25,23.50
2012,08,17,11,26,23.60
2012,08,17,11,27,23.70
2012,08,17,11,28,23.70
2012,08,17,11,29,23.70
2012,08,17,11,30,23.70
2012,08,17,11,31,23.70
2012,08,17,11,32,23.70
2012,08,17,11,33,23.80
2012,08,17,11,34,23.90
2012,08,17,11,35,23.90
2012,08,17,11,36,24.00
2012,08,17,11,37,23.90
2012,08,17,11,38,23.80
2012,08,17,11,39,23.70
2012,08,17,11,40,23.70
2012,08,17,11,41,23.80
2012,08,17,11,42,23.80
2012,08,17,11,43,23.80
2012,08,17,11,44,23.80
2012,08,17,11,45,23.90
2012,08,17,11,46,23.90
2012,08,17,11,47,24.10
2012,08,17,11,48,24.10
2012,08,17,11,49,24.10
2012,08,17,11,50,24.10
2012,08,17,11,51,24.10
2012,08,17,11,52,24.00
2012,08,17,11,53,23.80
2012,08,17,11,54,23.70
2012,08,17,11,55,23.70
2012,08,17,11,56,23.70
2012,08,17,11,57,23.80
2012,08,17,11,58,23.90
2012,08,17,11,59,24.00
2012,08,17,12,00,24.10
2012,08,17,12,01,24.10
2012,08,17,12,02,24.10
2012,08,17,12,03,24.10
2012,08,17,12,04,24.20
2012,08,17,12,05,24.40
2012,08,17,12,06,24.40
2012,08,17,12,07,24.40
2012,08,17,12,08,24.50
2012,08,17,12,09,24.50
2012,08,17,12,10,24.60
2012,08,17,12,11,24.70
2012,08,17,12,12,24.70
2012,08,17,12,13,24.70
2012,08,17,12,14,24.60
2012,08,17,12,15,24.60
2012,08,17,12,16,24.60
2012,08,17,12,17,24.60
2012,08,17,12,18,24.70
2012,08,17,12,19,24.70
2012,08,17,12,20,24.70
2012,08,17,12,21,24.80
2012,08,17,12,22,24.90
2012,08,17,12,23,24.80
2012,08,17,12,24,24.70
2012,08,17,12,25,24.70
2012,08,17,12,26,24.70
2012,08,17,12,27,24.60
2012,08,17,12,28,24.50
2012,08,17,12,29,24.40
2012,08,17,12,30,24.40
2012,08,17,12,31,24.40
2012,08,17,12,32,24.50
2012,08,17,12,33,24.50
2012,08,17,12,34,24.60
2012,08,17,12,35,24.50
2012,08,17,12,36,24.50
2012,08,17,12,37,24.40
2012,08,17,12,38,24.40
2012,08,17,12,39,24.40
2012,08,17,12,40,24.40
2012,08,17,12,41,24.40
2012,08,17,12,42,24.40
2012,08,17,12,43,24.30
2012,08,17,12,44,24.20
2012,08,17,12,45,24.20
2012,08,17,12,46,24.30
2012,08,17,12,47,24.30
2012,08,17,12,48,24.20
2012,08,17,12,49,24.10
2012,08,17,12,50,24.10
2012,08,17,12,51,24.00
2012,08,17,12,52,23.90
2012,08,17,12,53,23.90
2012,08,17,12,54,24.00
2012,08,17,12,55,24.10
2012,08,17,12,56,24.10
2012,08,17,12,57,24.10
2012,08,17,12,58,24.10
2012,08,17,12,59,24.10
2012,08,17,13,00,24.10
2012,08,17,13,01,24.20
2012,08,17,13,02,24.30
2012,08,17,13,03,24.30
2012,08,17,13,04,24.30
2012,08,17,13,05,24.30
2012,08,17,13,06,24.30
2012,08,17,13,07,24.40
2012,08,17,13,08,24.30
2012,08,17,13,09,24.40
2012,08,17,13,10,24.40
2012,08,17,13,11,24.40
2012,08,17,13,12,24.40
2012,08,17,13,13,24.40
2012,08,17,13,14,24.40
2012,08,17,13,15,24.40
2012,08,17,13,16,24.40
2012,08,17,13,17,24.50
2012,08,17,13,18,24.50
2012,08,17,13,19,24.40
2012,08,17,13,20,24.30
2012,08,17,13,21,24.30
2012,08,17,13,22,24.30
2012,08,17,13,23,24.30
2012,08,17,13,24,24.20
2012,08,17,13,25,24.10
2012,08,17,13,26,24.10
2012,08,17,13,27,24.20
2012,08,17,13,28,24.30
2012,08,17,13,29,24.40
2012,08,17,13,30,24.50
2012,08,17,13,31,24.50
2012,08,17,13,32,24.40
2012,08,17,13,33,24.40
2012,08,17,13,34,24.30
2012,08,17,13,35,24.20
2012,08,17,13,36,24.20
2012,08,17,13,37,24.30
2012,08,17,13,38,24.30
2012,08,17,13,39,24.40
2012,08,17,13,40,24.50
2012,08,17,13,41,24.70
2012,08,17,13,42,24.90
2012,08,17,13,43,25.00
2012,08,17,13,44,25.00
2012,08,17,13,45,25.10
2012,08,17,13,46,25.20
2012,08,17,13,47,25.10
2012,08,17,13,48,25.00
2012,08,17,13,49,24.90
2012,08,17,13,50,24.80
2012,08,17,13,51,24.80
2012,08,17,13,52,24.70
2012,08,17,13,53,24.70
2012,08,17,13,54,24.70
2012,08,17,13,55,24.80
2012,08,17,13,56,24.90
2012,08,17,13,57,25.00
2012,08,17,13,58,25.10
2012,08,17,13,59,25.20
2012,08,17,14,00,25.10
2012,08,17,14,01,24.90
2012,08,17,14,02,24.80
2012,08,17,14,03,24.70
2012,08,17,14,04,24.60
2012,08,17,14,05,24.50
2012,08,17,14,06,24.30
2012,08,17,14,07,24.20
2012,08,17,14,08,24.10
2012,08,17,14,09,24.10
2012,08,17,14,10,24.10
2012,08,17,14,11,24.10
2012,08,17,14,12,24.10
2012,08,17,14,13,24.20
2012,08,17,14,14,24.40
2012,08,17,14,15,24.50
2012,08,17,14,16,24.60
2012,08,17,14,17,24.70
2012,08,17,14,18,24.70
2012,08,17,14,19,24.80
2012,08,17,14,20,24.80
2012,08,17,14,21,24.90
2012,08,17,14,22,24.90
2012,08,17,14,23,24.90
2012,08,17,14,24,24.80
2012,08,17,14,25,24.70
2012,08,17,14,26,24.70
2012,08,17,14,27,24.70
2012,08,17,14,28,24.70
2012,08,17,14,29,24.70
2012,08,17,14,30,24.60
2012,08,17,14,31,24.80
2012,08,17,14,32,24.80
2012,08,17,14,33,24.90
2012,08,17,14,34,25.00
2012,08,17,14,35,25.10
2012,08,17,14,36,25.20
2012,08,17,14,37,25.20
2012,08,17,14,38,25.20
2012,08,17,14,39,25.20
2012,08,17,14,40,25.20
2012,08,17,14,41,25.20
2012,08,17,14,42,25.30
2012,08,17,14,43,25.30
2012,08,17,14,44,25.20
2012,08,17,14,45,25.20
2012,08,17,14,46,25.30
2012,08,17,14,47,25.30
2012,08,17,14,48,25.40
2012,08,17,14,49,25.50
2012,08,17,14,50,25.50
2012,08,17,14,51,25.50
2012,08,17,14,52,25.50
2012,08,17,14,53,25.60
2012,08,17,14,54,25.50
2012,08,17,14,55,25.50
2012,08,17,14,56,25.50
2012,08,17,14,57,25.40
2012,08,17,14,58,25.40
2012,08,17,14,59,25.30
2012,08,17,15,00,25.30
2012,08,17,15,01,25.20
2012,08,17,15,02,25.20
2012,08,17,15,03,25.20
2012,08,17,15,04,25.20
2012,08,17,15,05,25.20
2012,08,17,15,06,25.30
2012,08,17,15,07,25.30
2012,08,17,15,08,25.40
2012,08,17,15,09,25.40
2012,08,17,15,10,25.50
2012,08,17,15,11,25.50
2012,08,17,15,12,25.50
2012,08,17,15,13,25.40
2012,08,17,15,14,25.30
2012,08,17,15,15,25.30
2012,08,17,15,16,25.20
2012,08,17,15,17,25.20
2012,08,17,15,18,25.20
2012,08,17,15,19,25.20
2012,08,17,15,20,25.30
2012,08,17,15,21,25.40
2012,08,17,15,22,25.40
2012,08,17,15,23,25.50
2012,08,17,15,24,25.50
2012,08,17,15,25,25.50
2012,08,17,15,26,25.50
2012,08,17,15,27,25.50
2012,08,17,15,28,25.60
2012,08,17,15,29,25.60
2012,08,17,15,30,25.60
2012,08,17,15,31,25.70
2012,08,17,15,32,25.70
2012,08,17,15,33,25.70
2012,08,17,15,34,25.80
2012,08,17,15,35,25.80
2012,08,17,15,36,25.80
2012,08,17,15,37,25.80
2012,08,17,15,38,25.90
2012,08,17,15,39,25.90
2012,08,17,15,40,25.90
2012,08,17,15,41,25.80
2012,08,17,15,42,25.90
2012,08,17,15,43,25.90
2012,08,17,15,44,25.90
2012,08,17,15,45,25.90
2012,08,17,15,46,25.90
2012,08,17,15,47,25.90
2012,08,17,15,48,26.00
2012,08,17,15,49,26.00
2012,08,17,15,50,26.10
2012,08,17,15,51,26.20
2012,08,17,15,52,26.30
2012,08,17,15,53,26.30
2012,08,17,15,54,26.40
2012,08,17,15,55,26.40
2012,08,17,15,56,26.40
2012,08,17,15,57,26.40
2012,08,17,15,58,26.50
2012,08,17,15,59,26.60
2012,08,17,16,00,26.70
2012,08,17,16,01,26.70
2012,08,17,16,02,26.80
2012,08,17,16,03,26.80
2012,08,17,16,04,26.80
2012,08,17,16,05,26.80
2012,08,17,16,06,26.70
2012,08,17,16,07,26.70
2012,08,17,16,08,26.70
2012,08,17,16,09,26.70
2012,08,17,16,10,26.90
2012,08,17,16,11,27.10
2012,08,17,16,12,27.10
2012,08,17,16,13,27.10
2012,08,17,16,14,27.10
2012,08,17,16,15,27.10
2012,08,17,16,16,27.10
2012,08,17,16,17,27.00
2012,08,17,16,18,26.90
2012,08,17,16,19,27.00
2012,08,17,16,20,27.00
2012,08,17,16,21,26.90
2012,08,17,16,22,26.90
2012,08,17,16,23,26.90
2012,08,17,16,24,26.90
2012,08,17,16,25,26.80
2012,08,17,16,26,26.60
2012,08,17,16,27,26.50
2012,08,17,16,28,26.40
2012,08,17,16,29,26.40
2012,08,17,16,30,26.30
2012,08,17,16,31,26.40
2012,08,17,16,32,26.40
2012,08,17,16,33,26.50
2012,08,17,16,34,26.40
2012,08,17,16,35,26.40
2012,08,17,16,36,26.40
2012,08,17,16,37,26.40
2012,08,17,16,38,26.40
2012,08,17,16,39,26.40
2012,08,17,16,40,26.40
2012,08,17,16,41,26.60
2012,08,17,16,42,26.60
2012,08,17,16,43,26.60
2012,08,17,16,44,26.60
2012,08,17,16,45,26.40
2012,08,17,16,46,26.40
2012,08,17,16,47,26.30
2012,08,17,16,48,26.30
2012,08,17,16,49,26.30
2012,08,17,16,50,26.30
2012,08,17,16,51,26.30
2012,08,17,16,52,26.20
2012,08,17,16,53,26.20
2012,08,17,16,54,26.20
2012,08,17,16,55,26.20
2012,08,17,16,56,26.40
2012,08,17,16,57,26.60
2012,08,17,16,58,26.60
2012,08,17,16,59,26.60
2012,08,17,17,00,26.60
2012,08,17,17,01,26.50
2012,08,17,17,02,26.40
2012,08,17,17,03,26.30
2012,08,17,17,04,26.30
2012,08,17,17,05,26.30
2012,08,17,17,06,26.30
2012,08,17,17,07,26.30
2012,08,17,17,08,26.40
2012,08,17,17,09,26.30
2012,08,17,17,10,26.30
2012,08,17,17,11,26.30
2012,08,17,17,12,26.30
2012,08,17,17,13,26.30
2012,08,17,17,14,26.20
2012,08,17,17,15,26.20
2012,08,17,17,16,26.20
2012,08,17,17,17,26.30
2012,08,17,17,18,26.30
2012,08,17,17,19,26.40